Terminal Aerodrome Forecast
Issued by NWS Portland, OR

Home | Current Version | Previous Version | Text Only | Print | Product List | Glossary On
Versions: 1 2 3 4 5 6 7 8 9 10 11 12 13 14 15 16 17 18 19 20 21 22 23 24 25 26 27 28 29 30 31 32 33 34 35 36 37 38 39 40 41 42
000
FTUS46 KPQR 020703 AAA
TAFAST
TAF AMD
KAST 020703Z 0207/0306 33006KT P6SM SCT008
     FM021000 33006KT P6SM BKN008
     FM022000 29005KT P6SM BKN015
     FM022300 25008KT P6SM -RA BKN015 BKN025=

USA.gov is the U.S. government's official web portal to all federal, state and local government web resources and services.